Showing default

MINXSS-2, 43758

Orbit data source: Space-Track

MINXSS-2, 43758 is a payload satellite owned by CU-LASP (US) in SSO that was launched on Mon, 03 Dec 2018 UTC via an FALCON 9 launch vehicle from the Air Force Western Test Range (AFWTR). Payload-class satellites include a variety of spacecraft equipped with specific instruments for various scientific and technological missions. These include communications satellites like Starlink; space stations such as the ISS; scientific satellites like the Hubble; Earth observation satellites from companies like Planet Labs, Umbra, and HawkEye 360; GPS; miniature CubeSats for education and research; and military/defense satellites.

Loading next visibility...
Identifier
43758, 2018-099A
Orbit
SSO
Last TLE update
9 hours ago
Origin
Manufacturer
CU-LASP
Mission
Operational Amateur Astronomy
Bus & Motor
CUBESAT 3U, Unknown motor
Mass
3.52 kg wet, 3.52 kg dry
Launch date (UTC)
2018-12-03 (7 years ago)
Launch vehicle
FALCON 9
Launch site
Air Force Western Test Range (AFWTR)
Object type
Payload
Rocket body
Debris
Shape & HBR
Box + 2 Pan + 1 Ant, 0.8 m
Radar Cross Section
0.075 m², Medium (>0.1 m² and < 1m²)

Expand to show TLE details & history

TLE from 9 hours ago
0 MINXSS-2
1 43758U 18099A   25182.69027582  .00011720  00000-0  45346-3 0  9997
2 43758  97.5006 248.8041 0013058  81.9959 278.2760 15.26282052360342
Epoch: 2025-07-01T16:33Z
TLE epoch observation values (Epoch: 2025-07-01T16:33:59.83Z)
Latitude
-0.0001°
Longitude
80.32271°
Altitude
488.755 km
Speed
7.621 km/s
True Right ascension
16h 35m 12s
True Declination
0° 00' 00"
Sunlit
Object was in full shadow at epoch
Visualization orbit readout
Latitude
-18.21112°
Longitude
-101.78111°
Altitude
498.22 km
Speed
7.612 km/s
Apparent Right ascension
02h 58m 45s
Apparent Declination
-31° 04' 26"
Sunlit
Object is in daylight
Visualization observer readout
Local Sidereal Time
12:58:46
Azimuth
280.598° WNW
Elevation
-64.176°
Doppler factor
1
Orbital elements
Apogee altitude
492.86 km
Perigee altitude
474.939 km
Semi-major axis
6,862.037 km
Eccentricity
0.00131
Inclination
97.5006°
RAAN
248.8041°
Arg. of periapsis
81.9959°
True anomaly
Unknown
Mean anomaly
278.276°
Eccentric anomaly
Unknown
Mean motion
3.81824 °/min
Orbital period
94.28 mins
BSTAR
0.00045346
Loading maneuver chart data...
Loading SW <> Apogee altitude chart data...
Loading historical data...
Loading historical data...
Loading historical data...
Loading historical data...
Loading historical data...
Loading historical data...
Loading historical data...

MINXSS-2 Visibility forecast

Observer location: undefined°, undefined°

Span
Click to sort rows by Start time (UTC) header in descending order
Start Az.
Max El. time (UTC)
Max El. Az.
Max El.
End time (UTC)
End Az.
4 mins2025-07-02 03:43:53.342Z114.721° SE2025-07-02 03:45:53.342Z73.148° E20.832°2025-07-02 03:47:53.342Z28.832° NE
4 mins2025-07-02 05:17:53.342Z232.643° WSW2025-07-02 05:19:53.342Z276.396° WNW17.924°2025-07-02 05:21:53.342Z311.449° NW
5 mins2025-07-02 16:44:53.342Z46.57° ENE2025-07-02 16:46:53.342Z96.329° ESE26.205°2025-07-02 16:49:53.342Z158.369° S
|